Weather in Suhum

Ghana     6°01′59″N   0°27′26″E
temp.,
°C
wind,
m/s
gust,
m/s
humid.,
%
clouds,
%
prec.,
mm/h
press.,
hPa
HPBL,
m
20 may, fri
fri2000:00+23sw119720 0.3 101347
03:00+23ssw119814 1.4 101119
06:00+23ssw119887 1.4 101216
09:00+26s138299 0.0 1014700
12:00+28ssw2371100 0.1 1013922
15:00+27ssw137559 0.7 1011496
18:00+25ssw378542 1.3 1011293
21:00+23sw159697 0.9 1014163
21 may, sat
sat2100:00+23wsw2697100 1.3 1014198
03:00+23w129685 0.0 101372
06:00+22wnw1297100 0.1 101460
09:00+26w2380100 0.7 1016577
12:00+26n118496 5.7 1015483
15:00+24sw1194100 7.4 101228
18:00+22ssw3998100 10.7 1014578
21:00+22wsw3997100 0.4 1015487
22 may, sun
sun2200:00+22w139880 0.1 1014157
03:00+22w119898 0.0 101467
06:00+22nw119892 0.0 101529
09:00+22nw1297100 0.4 101685
12:00+25wnw138694 0.4 1015470
15:00+24w118889 0.5 101362
18:00+23sw139698 2.0 101379
21:00+22w2598100 0.0 1015199
23 may, mon
mon2300:00+21w129773 0.0 101480
03:00+21nnw119851 0.0 101212
06:00+21w119775 0.0 101414
09:00+24wnw118488 0.0 1015304
12:00+31e115235 0.0 10121431
15:00+29ssw226752 1.3 1010714
18:00+25sw018616 4.0 101116
21:00+23ssw119799 1.6 101339
24 may, tue
tue2400:00+22wsw1197100 1.8 101438
03:00+22wnw1197100 0.4 101223
06:00+22nw119790 0.4 101321
09:00+27wsw117316 0.1 1015657
12:00+29s116632 1.3 10131133
15:00+26s2387100 7.0 1011209
18:00+24s3793100 16.7 1012233
21:00+23w1296100 7.5 101584